• In Italy
  • List of Countries
  • For 7 days
  • Water Temperature
  • Satellite Maps
  • Weather Map
  • Weather Widgets
  • user-avatar
    Login

    Hourly Weather Giumri

    Today, 23 October, Monday

    Time Temperature Precipitation Wind Pressure Humidity
    00:00 +6°C° 0 mm 2 mps 631 mmHg 61%
    01:00 +6°C° 0 mm 2 mps 631 mmHg 62%
    02:00 +6°C° 0 mm 2 mps 631 mmHg 64%
    03:00 +5°C° 0 mm 3 mps 631 mmHg 65%
    04:00 +6°C° 0 mm 2 mps 631 mmHg 67%
    05:00 +6°C° 0 mm 2 mps 631 mmHg 70%
    06:00 +5°C° 0 mm 2 mps 631 mmHg 72%
    07:00 +7°C° 0 mm 2 mps 632 mmHg 67%
    08:00 +8°C° 0 mm 2 mps 632 mmHg 61%
    09:00 +10°C° 0 mm 2 mps 633 mmHg 55%
    10:00 +12°C° 0 mm 2 mps 633 mmHg 50%
    11:00 +13°C° 0 mm 2 mps 634 mmHg 46%
    12:00 +13°C° 0 mm 3 mps 634 mmHg 41%
    13:00 +14°C° 0 mm 3 mps 634 mmHg 40%
    14:00 +14°C° 0 mm 3 mps 634 mmHg 38%
    15:00 +14°C° 0 mm 3 mps 634 mmHg 37%
    16:00 +13°C° 0 mm 3 mps 633 mmHg 41%
    17:00 +12°C° 0 mm 2 mps 633 mmHg 46%
    18:00 +9°C° 0 mm 2 mps 633 mmHg 51%
    19:00 +9°C° 0 mm 2 mps 633 mmHg 53%
    20:00 +8°C° 0 mm 2 mps 633 mmHg 56%
    21:00 +7°C° 0 mm 2 mps 633 mmHg 58%
    22:00 +8°C° 0 mm 1 mps 633 mmHg 61%
    23:00 +8°C° 0 mm 1 mps 633 mmHg 63%

    Tomorrow, 24 October, Tuesday

    Time Temperature Precipitation Wind Pressure Humidity
    00:00 +7°C° 0 mm 1 mps 633 mmHg 66%
    01:00 +7°C° 0 mm 1 mps 633 mmHg 67%
    02:00 +7°C° 0 mm 1 mps 633 mmHg 68%
    03:00 +6°C° 0 mm 1 mps 634 mmHg 69%
    04:00 +6°C° 0 mm 1 mps 633 mmHg 67%
    05:00 +6°C° 0 mm 1 mps 633 mmHg 66%
    06:00 +6°C° 0 mm 1 mps 633 mmHg 64%
    07:00 +8°C° 0 mm 1 mps 634 mmHg 57%
    08:00 +9°C° 0 mm 2 mps 634 mmHg 50%
    09:00 +10°C° 0 mm 2 mps 635 mmHg 43%
    10:00 +12°C° 0 mm 3 mps 635 mmHg 40%
    11:00 +13°C° 0 mm 3 mps 635 mmHg 37%
    12:00 +15°C° 0 mm 4 mps 636 mmHg 33%
    13:00 +15°C° 0 mm 4 mps 636 mmHg 33%
    14:00 +15°C° 0 mm 4 mps 635 mmHg 33%
    15:00 +17°C° 0 mm 4 mps 635 mmHg 32%
    16:00 +14°C° 0 mm 4 mps 635 mmHg 37%
    17:00 +12°C° 0 mm 3 mps 635 mmHg 42%
    18:00 +10°C° 0 mm 2 mps 634 mmHg 47%
    19:00 +9°C° 0 mm 2 mps 635 mmHg 47%
    20:00 +9°C° 0 mm 2 mps 635 mmHg 47%
    21:00 +8°C° 0 mm 2 mps 635 mmHg 47%
    22:00 +8°C° 0 mm 2 mps 635 mmHg 48%
    23:00 +8°C° 0 mm 2 mps 635 mmHg 48%

    Day after tomorrow, 25 October, Wednesday

    Time Temperature Precipitation Wind Pressure Humidity
    00:00 +8°C° 0 mm 2 mps 635 mmHg 48%
    01:00 +8°C° 0 mm 2 mps 635 mmHg 49%
    02:00 +7°C° 0 mm 2 mps 635 mmHg 51%
    03:00 +7°C° 0 mm 2 mps 635 mmHg 52%
    04:00 +7°C° 0 mm 2 mps 635 mmHg 53%
    05:00 +7°C° 0 mm 2 mps 635 mmHg 55%
    06:00 +6°C° 0 mm 2 mps 635 mmHg 57%
    07:00 +8°C° 0 mm 2 mps 636 mmHg 52%
    08:00 +10°C° 0 mm 2 mps 636 mmHg 47%
    09:00 +12°C° 0 mm 3 mps 637 mmHg 42%
    10:00 +14°C° 0 mm 3 mps 637 mmHg 40%
    11:00 +15°C° 0 mm 4 mps 637 mmHg 37%
    12:00 +17°C° 0 mm 4 mps 637 mmHg 35%
    13:00 +18°C° 0 mm 4 mps 637 mmHg 34%
    14:00 +17°C° 0 mm 5 mps 637 mmHg 34%
    15:00 +17°C° 0 mm 5 mps 637 mmHg 34%
    16:00 +15°C° 0 mm 4 mps 636 mmHg 38%
    17:00 +13°C° 0 mm 3 mps 636 mmHg 42%
    18:00 +13°C° 0 mm 2 mps 635 mmHg 47%
    19:00 +12°C° 0 mm 2 mps 636 mmHg 47%
    20:00 +12°C° 0 mm 2 mps 636 mmHg 48%
    21:00 +10°C° 0 mm 2 mps 636 mmHg 49%
    22:00 +10°C° 0 mm 2 mps 636 mmHg 50%
    23:00 +9°C° 0 mm 2 mps 636 mmHg 51%

    26 October, Thursday

    Time Temperature Precipitation Wind Pressure Humidity
    00:00 +9°C° 0 mm 2 mps 635 mmHg 52%
    01:00 +9°C° 0 mm 2 mps 635 mmHg 53%
    02:00 +8°C° 0 mm 2 mps 635 mmHg 54%
    03:00 +9°C° 0 mm 1 mps 635 mmHg 54%
    04:00 +9°C° 0 mm 1 mps 635 mmHg 55%
    05:00 +9°C° 0 mm 1 mps 635 mmHg 56%
    06:00 +8°C° 0 mm 1 mps 635 mmHg 57%
    07:00 +9°C° 0 mm 2 mps 635 mmHg 52%
    08:00 +12°C° 0 mm 2 mps 636 mmHg 47%
    09:00 +14°C° 0 mm 2 mps 636 mmHg 42%
    10:00 +14°C° 0 mm 3 mps 636 mmHg 38%
    11:00 +17°C° 0 mm 3 mps 636 mmHg 35%
    12:00 +18°C° 0 mm 4 mps 636 mmHg 31%
    13:00 +18°C° 0 mm 4 mps 636 mmHg 30%
    14:00 +19°C° 0 mm 4 mps 636 mmHg 29%
    15:00 +19°C° 0 mm 4 mps 636 mmHg 28%
    16:00 +17°C° 0 mm 3 mps 635 mmHg 34%
    17:00 +14°C° 0 mm 3 mps 635 mmHg 39%
    18:00 +13°C° 0 mm 2 mps 634 mmHg 45%
    19:00 +12°C° 0 mm 1 mps 634 mmHg 49%
    20:00 +11°C° 0 mm 1 mps 634 mmHg 52%
    21:00 +11°C° 0 mm 1 mps 634 mmHg 56%
    22:00 +10°C° 0 mm 1 mps 634 mmHg 59%
    23:00 +10°C° 0 mm 1 mps 634 mmHg 62%

    27 October, Friday

    Time Temperature Precipitation Wind Pressure Humidity
    00:00 +9°C° 0 mm 2 mps 634 mmHg 66%
    01:00 +8°C° 0 mm 2 mps 634 mmHg 70%
    02:00 +9°C° 0 mm 1 mps 634 mmHg 75%
    03:00 +9°C° 0 mm 1 mps 634 mmHg 79%
    04:00 +8°C° 0 mm 1 mps 634 mmHg 82%
    05:00 +8°C° 0 mm 1 mps 634 mmHg 84%
    06:00 +8°C° 0 mm 1 mps 634 mmHg 86%
    07:00 +9°C° 0.1 mm 1 mps 635 mmHg 81%
    08:00 +10°C° 0.1 mm 1 mps 635 mmHg 76%
    09:00 +10°C° 0.1 mm 2 mps 636 mmHg 71%
    10:00 +12°C° 0 mm 2 mps 636 mmHg 65%
    11:00 +13°C° 0 mm 2 mps 636 mmHg 60%
    12:00 +14°C° 0 mm 2 mps 636 mmHg 54%
    13:00 +14°C° 0 mm 2 mps 636 mmHg 53%
    14:00 +15°C° 0 mm 2 mps 636 mmHg 51%
    15:00 +15°C° 0 mm 2 mps 635 mmHg 50%
    16:00 +13°C° 0 mm 2 mps 635 mmHg 56%
    17:00 +12°C° 0 mm 2 mps 634 mmHg 63%
    18:00 +10°C° 0 mm 1 mps 634 mmHg 70%
    19:00 +10°C° 0 mm 1 mps 634 mmHg 73%
    20:00 +9°C° 0 mm 1 mps 634 mmHg 77%
    21:00 +9°C° 0 mm 1 mps 634 mmHg 80%
    22:00 +8°C° 0 mm 1 mps 633 mmHg 80%
    23:00 +8°C° 0 mm 1 mps 633 mmHg 80%

    28 October, Saturday

    Time Temperature Precipitation Wind Pressure Humidity
    00:00 +8°C° 0 mm 1 mps 633 mmHg 79%
    01:00 +8°C° 0 mm 1 mps 633 mmHg 78%
    02:00 +7°C° 0 mm 1 mps 633 mmHg 76%
    03:00 +7°C° 0 mm 1 mps 633 mmHg 74%
    04:00 +7°C° 0 mm 1 mps 633 mmHg 71%
    05:00 +7°C° 0 mm 1 mps 632 mmHg 69%
    06:00 +7°C° 0 mm 1 mps 632 mmHg 66%
    07:00 +9°C° 0 mm 1 mps 633 mmHg 59%
    08:00 +9°C° 0 mm 2 mps 633 mmHg 52%
    09:00 +11°C° 0 mm 3 mps 634 mmHg 46%
    10:00 +13°C° 0 mm 4 mps 634 mmHg 42%
    11:00 +15°C° 0 mm 5 mps 634 mmHg 38%
    12:00 +17°C° 0 mm 6 mps 635 mmHg 35%
    13:00 +16°C° 0.1 mm 6 mps 634 mmHg 38%
    14:00 +16°C° 0.1 mm 6 mps 633 mmHg 41%
    15:00 +15°C° 0.1 mm 6 mps 633 mmHg 45%
    16:00 +14°C° 0.3 mm 5 mps 633 mmHg 54%
    17:00 +12°C° 0.3 mm 4 mps 632 mmHg 64%
    18:00 +11°C° 0.3 mm 3 mps 632 mmHg 74%
    19:00 +11°C° 0.8 mm 3 mps 632 mmHg 77%
    20:00 +10°C° 0.8 mm 4 mps 632 mmHg 80%
    21:00 +10°C° 0.8 mm 4 mps 632 mmHg 83%
    22:00 +10°C° 0.9 mm 3 mps 631 mmHg 84%
    23:00 +10°C° 0.9 mm 3 mps 631 mmHg 86%

    29 October, Sunday

    Time Temperature Precipitation Wind Pressure Humidity
    00:00 +9°C° 0.9 mm 3 mps 631 mmHg 88%
    01:00 +9°C° 0.5 mm 2 mps 630 mmHg 89%
    02:00 +9°C° 0.5 mm 2 mps 630 mmHg 90%
    03:00 +9°C° 0.5 mm 2 mps 630 mmHg 91%
    04:00 +9°C° 0.5 mm 2 mps 630 mmHg 91%
    05:00 +9°C° 0.5 mm 2 mps 630 mmHg 90%
    06:00 +8°C° 0.5 mm 2 mps 630 mmHg 90%
    07:00 +9°C° 0.3 mm 2 mps 630 mmHg 85%
    08:00 +10°C° 0.3 mm 2 mps 631 mmHg 81%
    09:00 +10°C° 0.3 mm 2 mps 631 mmHg 76%
    10:00 +11°C° 0.1 mm 3 mps 631 mmHg 70%
    11:00 +13°C° 0.1 mm 4 mps 632 mmHg 65%
    12:00 +14°C° 0.1 mm 4 mps 632 mmHg 59%
    13:00 +14°C° 0.1 mm 5 mps 632 mmHg 57%
    14:00 +14°C° 0.1 mm 5 mps 632 mmHg 54%
    15:00 +15°C° 0.1 mm 5 mps 632 mmHg 52%
    16:00 +13°C° 0 mm 4 mps 632 mmHg 57%
    17:00 +12°C° 0 mm 3 mps 631 mmHg 62%
    18:00 +12°C° 0 mm 2 mps 631 mmHg 67%
    19:00 +10°C° 0 mm 2 mps 631 mmHg 68%
    20:00 +10°C° 0 mm 2 mps 631 mmHg 70%
    21:00 +9°C° 0 mm 2 mps 631 mmHg 71%
    22:00 +9°C° 0 mm 2 mps 631 mmHg 72%
    23:00 +8°C° 0 mm 2 mps 631 mmHg 74%
    Show more